Location: Kra?nica
(53.4833°N, 14.6167°E)
Time: 15:58:08
(UTC+00:00)

COSMOS 2428 - Pass Details

Date: 23 May 2024
Orbit: 844 x 856 km, 70.9° (Epoch: 13 June)

Event Time Altitude Azimuth Distance (km) Brightness Sun altitude
Rises 01:56:20 0° 327° (NNW) 3,416 6.1 -6.5°
Reaches altitude 10° 01:58:48 10° 330° (NNW) 2,478 5.4 -6.3°
Maximum altitude 02:04:29 71° 55° (NE) 899 3.1 -5.7°
Drops below altitude 10° 02:10:09 10° 139° (SE) 2,469 5.1 -5.1°
Sets 02:12:36 0° 142° (SE) 3,403 5.8 -4.9°
